www.pogodaiklimat.ru

Погода и климат >> Архив погоды >> Ирак >> Azizyah


ПОГОДА в Azizyah

  • Прогноз погоды в Azizyah
  • Монитор погоды в Azizyah
  • Климат города

АРХИВ ПОГОДЫ в Azizyah

Время (UTC), дата Ветер
(напр.,м/с)
 
Видим.   Явления Облачность Т
(С)
Тd
(С)
f
(%)
Тe
(С)
Тes
(С)
Комфортность P
(гПа)
Po
(гПа)
Тmin
(С)
Tmax
(С)
R
(мм)
R24
(мм)
S
(см)
12 18.02 Ю 3 10 км 9/9 750 м
[Cu Sc]
+16.4 +9.7 65 +16 +17 1010.4 1010.0
15 18.02 Ю 2 10 км 9/9 600 м
[Cb cap]
+16.0 +11.9 77 +16 +16 1010.7 1011.0
18 18.02 Ю 4 8000 м {ливн. осадки} 9/9 750 м
[Cu Sc]
+13.7 +11.2 85 +12 +12 1011.5 1012.0 +17.1 0.5
21 18.02 Ю 2 8000 м {дождь} 9/9 750 м
[Cu Sc]
+13.0 +11.8 92 +12 +12 1011.2 1011.0
00 19.02 Ю 2 8000 м {дождь} 9/9 750 м
[Cu Sc]
+12.8 +11.6 92 +12 +12 1011.1 1011.0
06 19.02 З 3 8000 м дымка {дождь} 6/0
[Ac trans Ci fib]
+12.4 +9.6 83 +11 +14 1014.3 1014.0 +11.4 1
09 19.02 З 3 10 км 8/8 750 м
[Cu med, cong]
+15.0 +10.2 73 +14 +16 1014.6 1015.0
12 19.02 З 3 10 км 9/9 750 м
[Cu Sc]
+16.0 +10.5 70 +16 +16 1015.1 1015.0
15 19.02 штиль 0 10 км 5/4 750 м
[Cu hum Ac trans]
+14.4 +10.6 78 +14 +14 1016.3 1016.0
18 19.02 СЗ 1 10 км 5/4 750 м
[Cu hum Ac trans]
+12.4 +11.0 91 +12 +12 1017.6 1018.0 +16.4
21 19.02 штиль 0 8000 м дымка ясно +11.0 +10.8 99 +11 +27 опасность
простуды
1018.4 1018.0
00 20.02 штиль 0 5000 м дымка ясно +10.0 +10.0 100 +9 +9 1018.3 1018.0
03 20.02 штиль 0 2000 м дымка ясно +8.6 +8.6 100 +8 +8 1018.7 1019.0
06 20.02 СЗ 1 6000 м дымка 4/0
[Ci fib]
+12.5 +10.3 86 +12 +18 1019.7 1020.0 +8.3
09 20.02 С 1 10 км 6/6 1050 м
[Sc]
+15.8 +10.1 69 +17 +22 1019.3 1019.0
12 20.02 СВ 2 10 км 8/8 900 м
[Cu Sc]
+18.0 +10.5 62 +19 +20 1017.3 1017.0
15 20.02 Ю 2 10 км 8/0
[Ci sp]
+15.6 +11.1 75 +16 +16 1018.1 1018.0
18 20.02 СВ 2 10 км 9/9 900 м
[Cu Sc]
+14.2 +11.0 81 +14 +14 1018.3 1018.0 +18.0
06 21.02 В 2 10 км 9/9 900 м
[Cu Sc]
+14.0 +13.1 94 +13 +14 1015.8 1016.0 +12.0
09 21.02 В 2 10 км 9/9 900 м
[Cu Sc]
+18.0 +12.6 71 +19 +20 1014.8 1015.0
12 21.02 В 2 10 км 8/8 900 м
[Cu Sc]
+20.0 +13.9 68 +23 +24 комфорт 1013.4 1013.0
15 21.02 В 1 10 км 8/8 1050 м
[Cu Sc]
+18.8 +14.3 75 +21 +21 комфорт 1013.2 1013.0
21 21.02 10 км н/о +15.0 +13.2 89 +15 +15 1011.5 1012.0
00 22.02 С 1 10 км 4/0
[Ci fib]
+13.2 +11.9 92 +13 +13 1011.5 1012.0
03 22.02 В 1 10 км 9/9 900 м
[Cu Sc]
+13.5 +13.1 97 -21 -21 1011.6 1012.0
06 22.02 ЮВ 3 10 км 10/0
[Cs]
+16.0 +13.7 86 +16 +19 1011.8 1012.0 +12.0
09 22.02 ЮВ 4 10 км 10/4 900 м
[Frnb As trans]
+20.6 +10.7 53 +22 +24 комфорт 1011.9 1012.0
12 22.02 ЮВ 1 10 км 5/0
[Ci sp]
+22.4 +10.8 48 +24 +30 комфорт 1011.0 1011.0
18 22.02 штиль 0 10 км ясно +17.8 +13.2 74 +18 +18 1011.4 1011.0 +22.6
21 22.02 СЗ 2 10 км ясно +15.7 +13.3 86 +16 +16 1012.0 1012.0
00 23.02 С 1 10 км ясно +13.5 +12.5 94 +14 +14 1011.4 1011.0
06 23.02 З 1 7000 м дымка 6/6 750 м
[Cu Sc]
+14.0 +13.6 97 +14 +17 1013.4 1013.0 +10.5
09 23.02 З 1 7000 м дымка 10/10 750 м
[Cu Sc]
+17.1 +15.2 89 +18 +18 1013.3 1013.0
12 23.02 В 1 7000 м мгла 10/5 750 м
[Frnb As op]
+19.0 +14.9 77 +21 +22 комфорт 1011.3 1011.0
15 23.02 штиль 0 6000 м слабый дождь 10/6 750 м
[Frnb As op]
+18.0 +15.9 88 +18 +18 1010.9 1011.0
21 23.02 С 4 5000 м слабый дождь 10/8 600 м
[Frnb As op]
+14.0 +14.0 100 +12 +12 1011.8 1012.0
00 24.02 В 3 7000 м дымка {дождь} 3/3 1050 м
[Sc]
+13.8 +13.4 97 +13 +13 1010.6 1011.0
03 24.02 С 2 7000 м дымка 4/4 1050 м
[Sc]
+13.1 +12.7 97 +12 +12 1010.1 1010.0
09 24.02 С 5 10 км 6/6 600 м
[Frnb]
+17.0 +14.4 85 +16 +19 1010.1 1010.0
21 24.02 штиль 0 10 км ясно +13.2 +12.1 93 +13 +13 1011.4 1011.0
00 25.02 С 1 10 км ясно +12.0 +11.2 95 +12 +12 1011.4 1011.0

 

Местоположение метеостанции Azizyah (Ирак): широта 32.92 долгота 45.07 высота над уровнем моря 25 м.

В архиве по умолчанию представлена погода в Azizyah за последнюю неделю. Архивные данные за месяц целиком и за предыдущие месяцы, начиная с января 2011 года, Вы можете получить, выбрав интересующий диапазон дат из раскрывающегося списка и нажав кнопку "Ввод!".

Внимание! Время в таблицах - всемирное. Для получения местного времени необходимо прибавить поправку, которая в Azizyah равна 3 ч.

Смотрите также архив погоды в соседних городах и на ближайших метеорологических станциях:

Погода в Ayn Al-Tamar (Ирак) (77 км)
Погода в Hella (Ирак) (78 км)
Погода в Ubaydah Bin Al Jarrah (Ирак) (80 км)
Погода в Badrah (Ирак) (84 км)
Погода в Baghdad (Ирак) (86 км)
Погода в Karbalaa (Ирак) (104 км)
Погода в Diwaniya (Ирак) (105 км)
Погода в Al-Khalis (Ирак) (113 км)
Погода в Kut-Al-Hai (Ирак) (124 км)
Погода в Najaf (Ирак) (126 км)

Пояснения к столбцам:

Ветер - указаны скорость ветра в м/с - средняя за 10 мин, порывы в срок и между сроками (в фигурных скобках) и направление, откуда дует ветер: С - северный, СВ - северо-восточный, В - восточный, ЮВ - юго-восточный, Ю - южный, ЮЗ - юго-западный, З - западный, СЗ - северо-западный.
Видимость - горизонтальная дальность видимости в метрах или километрах. При видимости от 1 до 10 км при отсутствии осадков обычно наблюдается дымка, при ухудшении видимости до 1 км и менее - туман. В сухую погоду видимость может ухудшаться дымом, пылью или мглою.
Явления - указаны атмосферные явления, наблюдавшиеся в срок или в последний час перед сроком; фигурными скобками обозначены явления, наблюдавшиеся между сроками (за 1-3 часа до срока); квадратными скобками обозначены град или гололедные отложения с указанием их диаметра в мм.
Облачность - указаны через наклонную черту общая и нижняя облачность в баллах и высота нижней границы облаков в метрах; квадратными скобками обозначены формы облаков: Ci - перистые, Cs - перисто-слоистые, Cc - перисто-кучевые, Ac - высококучевые, As - высокослоистые, Sc - слоисто-кучевые, Ns - слоисто-дождевые, Cu - кучевые, Cb - кучево-дождевые. Подробнее классификацию облаков см. в Атласе облаков (PDF).
T - Температура воздуха - температура, измеренная на высоте 2 м над землей.
Td - Температура точки росы - температура, при понижении до которой содержащийся в воздухе водяной пар достигнет насыщения.
f - Относительная влажность воздуха - влажноcть воздуха, измеренная на высоте 2 м над землей.
Te - Эффективная температура - температура, которую ощущает одетый по сезону человек в тени. Характеристика душности погоды. При расчете учитывается влияние влажности воздуха и скорости ветра на теплоощущения человека.
Tes - Эффективная температура на солнце - температура, которую ощущает человек, с поправкой на солнечный нагрев. Характеристика знойности погоды. Зависит от высоты солнца над горизонтом, облачности и скорости ветра. Ночью, в пасмурную погоду, а также при ветре 12 м/с и более поправка равна нулю.
P - Атмосферное давление - приведенное к уровню моря атмосферное давление.
Po - Атмосферное давление - измеренное на уровне метеостанции атмосферное давление.
Tmin - Минимальная температура - минимум температуры воздуха на высоте 2 м над землей.
Tmax - Максимальная температура - максимум температуры воздуха на высоте 2 м над землей.
R - Количество осадков - Количество выпавших осадков за период времени, мм. При наведении курсора мыши на число - период времени, за который выпало указанное количество осадков.
R24 - Количество осадков - Количество выпавших осадков за 24 часа, мм.
S - Снежный покров - Высота снежного покрова, см. При наведении курсора мыши на число - состояние снежного покрова и степень покрытия местности в баллах.